Location: Bilsen
(53.7722°N, 9.8765°E)
Time: 23:47:02
(UTC+00:00)

Aureole 2 Rocket - Pass Details

Date: 18 February 2020
Orbit: 308 x 448 km, 73.9° (Epoch: 09 April)

Event Time Altitude Azimuth Distance (km) Brightness Sun altitude
Exits shadow 03:22:09 12° 92° (E) 1,276 5.5 -28.8°
Drops below altitude 10° 03:22:31 10° 97° (E) 1,380 5.6 -28.7°
Enters shadow 04:29:44 -47° 333° (NNW) 9,734 9.1 -19.1°
